Home > Time Zones > World Clock > Weather > Spain > Ceuta > Past weeks

Flag for Spain Weather past 2 weeks in Ceuta, Ceuta, Spain

Now
73 °F

Scattered clouds.


Feels Like: 72 °F
Forecast: 71 / 80 °F
Wind: 10 mph from East

Location: Gibraltar Airport

Current Time: Sep 1, 2014 at 10:42:04 AM

Latest Report: Sep 1, 2014 at 9:50 AM


Visibility: 6 mi

Pressure: 29.98 "Hg

Humidity: 89%

Dew point: 70 °F

Location of CeutaLocation

Historic Weather in Ceuta — Graph

°F

Ceuta temperature yesterday

Maximum temperature yesterday: 79 °F (at 3:50 PM)
Minimum temperature yesterday: 68 °F (at 6:50 AM)
Average temperature yesterday: 73 °F

Past Weeks' High & Low Weather Summary

 TemperatureHumidityPressure
High93 °F (Aug 27, 3:50 PM)100% (Aug 24, 7:50 AM)30.09 "Hg (Aug 24, 7:50 AM)
Low64 °F (Aug 26, 8:50 AM)25% (Aug 21, 3:50 AM)29.86 "Hg (Aug 18, 6:50 PM)
Average75 °F71%29.98 "Hg
* Reported Aug 17 8:50 AM — Sep 1 8:50 AM, Ceuta, Weather by CustomWeather, © 2014

Note: Actual official high and low records may vary slightly from our data, if they occured in-between our weather recording intervals... More about our weather records

Advertising

Ceuta weather history for previous 24 hours

 ConditionsComfort  
Time TempWeatherWind HumidityBarometerVisibility
8:50 AM
Sep 1
72 °FPassing clouds.9 mph94%29.98 "Hg6 mi
7:50 AM72 °FPartly cloudy.12 mph94%29.95 "Hg6 mi
6:50 AM73 °FPassing clouds.13 mph94%29.95 "Hg6 mi
5:50 AM72 °FClear.14 mph94%29.95 "HgN/A
4:50 AM73 °FPassing clouds.14 mph94%29.98 "HgN/A
3:50 AM72 °FPassing clouds.13 mph94%29.98 "HgN/A
2:50 AM72 °FClear.13 mph94%29.98 "HgN/A
1:50 AM72 °FClear.12 mph94%29.98 "HgN/A
12:50 AM72 °FClear.12 mph94%29.98 "HgN/A
11:50 PM
Aug 31
72 °FClear.9 mph88%29.98 "HgN/A
10:50 PM72 °FPassing clouds.7 mph88%30.01 "HgN/A
9:50 PM72 °FPassing clouds.7 mph94%29.98 "HgN/A
8:50 PM72 °FHaze.7 mph94%29.95 "Hg5 mi
7:50 PM72 °FHaze.7 mph94%29.95 "Hg5 mi
6:50 PM77 °FPassing clouds.12 mph83%29.95 "HgN/A
5:50 PM79 °FPassing clouds.10 mph79%29.98 "HgN/A
4:50 PM79 °FPassing clouds.13 mph79%29.98 "HgN/A
3:50 PM79 °FPassing clouds.13 mph79%29.98 "HgN/A
2:50 PM77 °FPassing clouds.10 mph79%30.01 "HgN/A
1:50 PM77 °FPassing clouds.12 mph74%30.01 "HgN/A
12:50 PM75 °FPassing clouds.8 mph78%30.04 "HgN/A
11:50 AM75 °FPassing clouds.8 mph78%30.01 "HgN/A
10:50 AM75 °FHaze.7 mph83%30.01 "Hg6 mi
Weather by CustomWeather, © 2014

See weather overviewHow to use our weather pages